OK,85,23,1050,85,2014-10-01T01:40:00,0,28072820,178875
OK,85,23,1050,85,2014-10-01T01:45:00,0,28073267,178875
OK,85,23,1050,85,2014-10-01T01:50:00,0,28073715,178875
OK,85,23,1050,85,2014-10-01T01:55:00,0,28074033,178875
OK,85,23,1050,85,2014-10-01T02:05:00,0,28074922,178875
OK,85,23,1050,85,2014-10-01T02:10:00,0,28075371,178875
OK,86,23,1050,86,2014-10-01T02:15:00,1,28075820,178875
OK,76,26,1050,76,2014-10-01T02:20:00,1,28076203,178875
OK,76,26,1050,76,2014-10-01T02:25:00,0,28076652,178875
OK,76,26,1050,76,2014-10-01T02:30:00,0,28077101,178875
OK,83,24,1050,83,2014-10-01T02:35:00,1,28077550,178875
OK,83,24,1050,83,2014-10-01T02:40:00,1,28077953,178875
OK,84,23,1050,84,2014-10-01T02:45:00,1,28078402,178875
OK,84,23,1050,84,2014-10-01T02:50:00,0,28078847,178875
OK,84,23,1050,84,2014-10-01T02:55:00,0,28079295,178875
OK,84,23,1050,84,2014-10-01T03:00:00,0,28079738,178875
OK,58,34,1050,58,2014-10-01T03:05:00,1,28080187,178875
OK,58,34,1050,58,2014-10-01T03:10:00,1,28080521,178875
OK,58,34,1050,58,2014-10-01T03:15:00,0,28080970,178875
OK,58,34,1050,58,2014-10-01T03:20:00,0,28081419,178875
OK,58,34,1050,58,2014-10-01T03:25:00,0,28081866,178875
OK,58,34,1050,58,2014-10-01T03:30:00,0,28082315,178875
OK,80,25,1050,80,2014-10-01T03:35:00,1,28082748,178875
OK,79,25,1050,79,2014-10-01T03:40:00,3,28083180,178875
OK,68,29,1050,68,2014-10-01T03:45:00,3,28083629,178875
OK,52,38,1050,52,2014-10-01T03:50:00,6,28084078,178875
OK,52,38,1050,52,2014-10-01T03:55:00,6,28084519,178875
OK,72,27,1050,72,2014-10-01T04:00:00,2,28084944,178875
OK,71,28,1050,71,2014-10-01T04:05:00,3,28085393,178875
OK,71,28,1050,71,2014-10-01T04:10:00,3,28085838,178875
OK,53,37,1050,53,2014-10-01T04:15:00,2,28086287,178875
OK,60,33,1050,60,2014-10-01T04:20:00,3,28086729,178875
OK,99,20,1050,99,2014-10-01T04:25:00,6,28087178,178875
OK,66,30,1050,66,2014-10-01T04:30:00,10,28087623,178875
OK,58,34,1050,58,2014-10-01T04:35:00,7,28088072,178875
OK,49,40,1050,49,2014-10-01T04:40:00,4,28088496,178875
OK,75,26,1050,75,2014-10-01T04:45:00,3,28088945,178875
OK,70,28,1050,70,2014-10-01T04:50:00,9,28089375,178875
OK,59,34,1050,59,2014-10-01T04:55:00,9,28089824,178875
OK,59,34,1050,59,2014-10-01T05:00:00,6,28090273,178875
OK,58,34,1050,58,2014-10-01T05:05:00,3,28090617,178875
OK,58,34,1050,58,2014-10-01T05:10:00,0,28091066,178875
OK,52,38,1050,52,2014-10-01T05:15:00,3,28091515,178875
OK,55,36,1050,55,2014-10-01T05:20:00,2,28091932,178875
OK,57,35,1050,57,2014-10-01T05:25:00,6,28092381,178875
OK,58,34,1050,58,2014-10-01T05:30:00,8,28092825,178875
OK,164,12,1050,164,2014-10-01T05:35:00,3,28093266,178875
OK,264,7,1050,264,2014-10-01T05:40:00,6,28093697,178875
OK,295,6,1050,295,2014-10-01T05:45:00,7,28094146,178875
OK,297,6,1050,297,2014-10-01T05:50:00,7,28094557,178875
OK,310,6,1050,310,2014-10-01T05:55:00,8,28095002,178875
OK,303,6,1050,303,2014-10-01T06:00:00,6,28095449,178875
OK,189,10,1050,189,2014-10-01T06:05:00,2,28095898,178875
OK,76,26,1050,76,2014-10-01T06:10:00,3,28096311,178875
OK,88,22,1050,88,2014-10-01T06:15:00,8,28096760,178875
OK,102,19,1050,102,2014-10-01T06:20:00,10,28097194,178875
OK,120,16,1050,120,2014-10-01T06:25:00,6,28097643,178875
OK,170,11,1050,170,2014-10-01T06:30:00,5,28098092,178875
OK,135,14,1050,135,2014-10-01T06:35:00,7,28098529,178875
OK,86,23,1050,86,2014-10-01T06:40:00,4,28098973,178875
OK,79,25,1050,79,2014-10-01T06:45:00,9,28099421,178875
OK,83,24,1050,83,2014-10-01T06:50:00,4,28099764,178875
OK,92,21,1050,92,2014-10-01T06:55:00,1,28100213,178875
OK,57,35,1050,57,2014-10-01T07:00:00,3,28100520,178875
OK,102,19,1050,102,2014-10-01T07:10:00,1,28101340,178875
OK,46,43,1050,46,2014-10-01T07:20:00,5,28102225,178875
OK,53,37,1050,53,2014-10-01T07:25:00,4,28102674,178875
OK,67,29,1050,67,2014-10-01T07:30:00,3,28103102,178875
OK,47,42,1050,47,2014-10-01T07:35:00,5,28103548,178875
OK,46,43,1050,46,2014-10-01T07:40:00,4,28103993,178875
OK,46,43,1050,46,2014-10-01T07:45:00,0,28104438,178875
OK,77,26,1050,77,2014-10-01T07:50:00,4,28104879,178875
OK,88,22,1050,88,2014-10-01T07:55:00,7,28105324,178875
OK,84,23,1050,84,2014-10-01T08:00:00,4,28105764,178875
OK,137,14,1050,137,2014-10-01T08:05:00,3,28106213,178875
OK,153,13,1050,153,2014-10-01T08:10:00,1,28106650,178875
OK,89,22,1050,89,2014-10-01T08:15:00,7,28107056,178875
OK,87,23,1050,87,2014-10-01T08:20:00,7,28107488,178875
OK,48,41,1050,48,2014-10-01T08:25:00,3,28107937,178875
OK,72,27,1050,72,2014-10-01T08:30:00,4,28108376,178875
OK,99,20,1050,99,2014-10-01T08:35:00,3,28108825,178875
OK,87,23,1050,87,2014-10-01T08:40:00,2,28109253,178875
OK,55,36,1050,55,2014-10-01T08:45:00,4,28109702,178875
OK,69,29,1050,69,2014-10-01T08:50:00,4,28110045,178875
OK,58,34,1050,58,2014-10-01T09:00:00,8,28110917,178875
OK,70,28,1050,70,2014-10-01T09:05:00,6,28111366,178875
OK,85,23,1050,85,2014-10-01T09:10:00,3,28111795,178875
OK,85,23,1050,85,2014-10-01T09:15:00,1,28112244,178875
OK,46,43,1050,46,2014-10-01T09:20:00,1,28112585,178875
OK,53,37,1050,53,2014-10-01T09:30:00,3,28113458,178875
OK,70,28,1050,70,2014-10-01T09:35:00,2,28113907,178875
OK,65,30,1050,65,2014-10-01T09:40:00,3,28114339,178875
OK,65,30,1050,65,2014-10-01T09:45:00,0,28114788,178875
OK,55,36,1050,55,2014-10-01T09:50:00,4,28115142,178875
OK,45,44,1050,45,2014-10-01T10:00:00,6,28116003,178875
OK,75,26,1050,75,2014-10-01T10:05:00,1,28116452,178875
OK,52,38,1050,52,2014-10-01T10:10:00,4,28116860,178875
OK,65,30,1050,65,2014-10-01T10:15:00,2,28117309,178875
OK,70,28,1050,70,2014-10-01T10:20:00,2,28117734,178875
OK,76,26,1050,76,2014-10-01T10:25:00,2,28118183,178875
OK,67,29,1050,67,2014-10-01T10:30:00,6,28118628,178875
OK,62,32,1050,62,2014-10-01T10:35:00,6,28119075,178875
OK,62,32,1050,62,2014-10-01T10:40:00,5,28119519,178875
OK,71,28,1050,71,2014-10-01T10:45:00,5,28119967,178875
OK,79,25,1050,79,2014-10-01T10:50:00,0,28120415,178875
OK,64,31,1050,64,2014-10-01T10:55:00,2,28120864,178875
OK,68,29,1050,68,2014-10-01T11:00:00,3,28121247,178875
OK,68,29,1050,68,2014-10-01T11:05:00,5,28121696,178875
OK,76,26,1050,76,2014-10-01T11:10:00,2,28122134,178875
OK,54,37,1050,54,2014-10-01T11:15:00,3,28122583,178875
OK,54,37,1050,54,2014-10-01T11:20:00,3,28123024,178875
OK,50,40,1050,50,2014-10-01T11:25:00,6,28123473,178875
OK,53,37,1050,53,2014-10-01T11:30:00,9,28123905,178875
OK,50,40,1050,50,2014-10-01T11:35:00,8,28124354,178875
OK,48,41,1050,48,2014-10-01T11:40:00,6,28124756,178875
OK,56,35,1050,56,2014-10-01T11:45:00,2,28125205,178875
OK,79,25,1050,79,2014-10-01T11:50:00,2,28125634,178875
OK,70,28,1050,70,2014-10-01T11:55:00,2,28126083,178875
OK,64,31,1050,64,2014-10-01T12:00:00,6,28126435,178875
OK,104,19,1050,104,2014-10-01T12:10:00,1,28127333,178875
OK,53,37,1050,53,2014-10-01T12:15:00,3,28127782,178875
OK,52,38,1050,52,2014-10-01T12:20:00,2,28128210,178875
OK,94,21,1050,94,2014-10-01T12:25:00,5,28128659,178875
OK,78,25,1050,78,2014-10-01T12:30:00,8,28129094,178875
OK,63,31,1050,63,2014-10-01T12:35:00,5,28129543,178875
OK,67,29,1050,67,2014-10-01T12:40:00,4,28129977,178875
OK,72,27,1050,72,2014-10-01T12:45:00,1,28130426,178875
OK,64,31,1050,64,2014-10-01T12:50:00,1,28130854,178875
OK,80,25,1050,80,2014-10-01T12:55:00,5,28131303,178875
OK,75,26,1050,75,2014-10-01T13:00:00,4,28131740,178875
OK,44,45,1050,44,2014-10-01T13:05:00,2,28132189,178875
OK,85,23,1050,85,2014-10-01T13:10:00,5,28132627,178875
OK,85,23,1050,85,2014-10-01T13:15:00,6,28133074,178875
OK,99,20,1050,99,2014-10-01T13:20:00,4,28133512,178875
OK,97,20,1050,97,2014-10-01T13:25:00,7,28133961,178875
OK,87,23,1050,87,2014-10-01T13:30:00,7,28134400,178875
OK,99,20,1050,99,2014-10-01T13:35:00,4,28134849,178875
OK,136,14,1050,136,2014-10-01T13:40:00,2,28135268,178875
OK,181,11,1050,181,2014-10-01T13:45:00,0,28135717,178875
OK,81,24,1050,81,2014-10-01T13:50:00,5,28136154,178875
OK,68,29,1050,68,2014-10-01T13:55:00,4,28136603,178875
OK,49,40,1050,49,2014-10-01T14:00:00,2,28137043,178875
OK,44,45,1050,44,2014-10-01T14:05:00,3,28137492,178875
OK,108,18,1050,108,2014-10-01T14:10:00,4,28137926,178875
OK,106,18,1050,106,2014-10-01T14:15:00,6,28138375,178875
OK,76,26,1050,76,2014-10-01T14:20:00,6,28138803,178875
OK,144,13,1050,144,2014-10-01T14:25:00,1,28139252,178875
OK,152,13,1050,152,2014-10-01T14:30:00,5,28139663,178875
OK,149,13,1050,149,2014-10-01T14:35:00,6,28140112,178875
OK,161,12,1050,161,2014-10-01T14:40:00,7,28140554,178875
OK,83,24,1050,83,2014-10-01T14:45:00,9,28141003,178875
OK,81,24,1050,81,2014-10-01T14:50:00,12,28141429,178875
OK,85,23,1050,85,2014-10-01T14:55:00,6,28141878,178875
OK,67,29,1050,67,2014-10-01T15:00:00,4,28142306,178875
OK,56,35,1050,56,2014-10-01T15:05:00,5,28142755,178875
OK,63,31,1050,63,2014-10-01T15:10:00,6,28143182,178875
OK,68,29,1050,68,2014-10-01T15:15:00,7,28143631,178875
OK,54,37,1050,54,2014-10-01T15:20:00,6,28144079,178875
OK,53,37,1050,53,2014-10-01T15:25:00,3,28144528,178875
OK,50,40,1050,50,2014-10-01T15:30:00,1,28144949,178875
OK,51,39,1050,51,2014-10-01T15:35:00,2,28145363,178875
OK,55,36,1050,55,2014-10-01T15:40:00,2,28145812,178875
OK,60,33,1050,60,2014-10-01T15:45:00,7,28146261,178875
OK,65,30,1050,65,2014-10-01T15:50:00,12,28146710,178875
OK,75,26,1050,75,2014-10-01T15:55:00,5,28147118,178875
OK,68,29,1050,68,2014-10-01T16:00:00,4,28147562,178875
OK,53,37,1050,53,2014-10-01T16:05:00,2,28148011,178875
OK,53,37,1050,53,2014-10-01T16:10:00,0,28148412,178875
OK,50,40,1050,50,2014-10-01T16:20:00,6,28149300,178875
OK,60,33,1050,60,2014-10-01T16:25:00,4,28149749,178875
OK,50,40,1050,50,2014-10-01T16:30:00,4,28150175,178875
OK,51,39,1050,51,2014-10-01T16:35:00,6,28150624,178875
OK,114,17,1050,114,2014-10-01T16:40:00,2,28151042,178875
OK,262,7,1050,262,2014-10-01T16:45:00,3,28151491,178875
OK,91,22,1050,91,2014-10-01T16:50:00,4,28151940,178875
OK,89,22,1050,89,2014-10-01T17:00:00,4,28152389,178875
OK,86,23,1050,86,2014-10-01T17:05:00,2,28152835,178875
OK,90,22,1050,90,2014-10-01T17:10:00,1,28153282,178875
OK,90,22,1050,90,2014-10-01T17:15:00,1,28153731,178875
OK,72,27,1050,72,2014-10-01T17:20:00,1,28154141,178875
OK,88,22,1050,88,2014-10-01T17:25:00,1,28154590,178875
OK,93,21,1050,93,2014-10-01T17:30:00,1,28155032,178875
OK,77,26,1050,77,2014-10-01T17:35:00,2,28155480,178875
OK,60,33,1050,60,2014-10-01T17:40:00,2,28155898,178875
OK,69,29,1050,69,2014-10-01T17:45:00,2,28156347,178875
OK,72,27,1050,72,2014-10-01T17:50:00,1,28156795,178875
OK,71,28,1050,71,2014-10-01T17:55:00,1,28157234,178875
OK,81,24,1050,81,2014-10-01T18:00:00,2,28157664,178875
OK,92,21,1050,92,2014-10-01T18:05:00,1,28158112,178875
OK,92,21,1050,92,2014-10-01T18:10:00,0,28158556,178875
OK,92,21,1050,92,2014-10-01T18:15:00,0,28159002,178875
OK,92,21,1050,92,2014-10-01T18:20:00,0,28159448,178875
OK,56,35,1050,56,2014-10-01T18:25:00,2,28159783,178875
OK,77,26,1050,77,2014-10-01T18:35:00,2,28160681,178875
OK,49,40,1050,49,2014-10-01T18:40:00,2,28161119,178875
OK,49,40,1050,49,2014-10-01T18:45:00,2,28161568,178875
OK,65,30,1050,65,2014-10-01T18:50:00,1,28161985,178875
OK,65,30,1050,65,2014-10-01T18:55:00,0,28162434,178875
OK,43,46,1050,43,2014-10-01T19:00:00,3,28162828,178875
OK,43,46,1050,43,2014-10-01T19:05:00,4,28163267,178875
OK,62,32,1050,62,2014-10-01T19:10:00,2,28163715,178875
OK,65,30,1050,65,2014-10-01T19:15:00,2,28164164,178875
OK,89,22,1050,89,2014-10-01T19:20:00,1,28164595,178875
OK,70,28,1050,70,2014-10-01T19:25:00,2,28165044,178875
OK,70,28,1050,70,2014-10-01T19:30:00,2,28165469,178875
OK,68,29,1050,68,2014-10-01T19:35:00,0,28165917,178875
OK,68,29,1050,68,2014-10-01T19:40:00,0,28166358,178875
OK,120,16,1050,120,2014-10-01T19:45:00,1,28166720,178875
OK,120,16,1050,120,2014-10-01T19:50:00,1,28167169,178875
OK,120,16,1050,120,2014-10-01T19:55:00,0,28167598,178875
OK,120,16,1050,120,2014-10-01T20:00:00,0,28168031,178875
OK,59,34,1050,59,2014-10-01T20:05:00,2,28168480,178875
OK,63,31,1050,63,2014-10-01T20:10:00,1,28168925,178875
OK,63,31,1050,63,2014-10-01T20:15:00,0,28169374,178875
OK,35,57,1050,35,2014-10-01T20:20:00,1,28169822,178875
OK,78,25,1050,78,2014-10-01T20:25:00,3,28170248,178875
OK,78,25,1050,78,2014-10-01T20:30:00,3,28170693,178875
OK,75,26,1050,75,2014-10-01T20:35:00,1,28171141,178875
OK,60,33,1050,60,2014-10-01T20:40:00,1,28171578,178875
OK,60,33,1050,60,2014-10-01T20:45:00,1,28172024,178875
OK,60,33,1050,60,2014-10-01T20:50:00,0,28172472,178875
OK,57,35,1050,57,2014-10-01T20:55:00,2,28172918,178875
OK,44,45,1050,44,2014-10-01T21:00:00,1,28173364,178875
OK,44,45,1050,44,2014-10-01T21:05:00,0,28173813,178875
OK,76,26,1050,76,2014-10-01T21:10:00,1,28174254,178875
OK,76,26,1050,76,2014-10-01T21:15:00,1,28174703,178875
OK,76,26,1050,76,2014-10-01T21:20:00,0,28175129,178875
OK,76,26,1050,76,2014-10-01T21:25:00,0,28175525,178875
OK,34,59,1050,34,2014-10-01T21:30:00,1,28175974,178875
OK,34,59,1050,34,2014-10-01T21:35:00,1,28176423,178875
OK,34,59,1050,34,2014-10-01T21:40:00,0,28176872,178875
OK,52,38,1050,52,2014-10-01T21:45:00,2,28177228,178875
OK,52,38,1050,52,2014-10-01T21:50:00,2,28177668,178875
OK,39,51,1050,39,2014-10-01T21:55:00,2,28178114,178875
OK,35,57,1050,35,2014-10-01T22:00:00,0,28178563,178875
OK,35,57,1050,35,2014-10-01T22:05:00,0,28179010,178875
OK,35,57,1050,35,2014-10-01T22:10:00,0,28179444,178875
OK,35,57,1050,35,2014-10-01T22:15:00,0,28179887,178875
OK,44,45,1050,44,2014-10-01T22:20:00,1,28180334,178875
OK,44,45,1050,44,2014-10-01T22:25:00,0,28180732,178875
OK,44,45,1050,44,2014-10-01T22:30:00,0,28181181,178875
OK,44,45,1050,44,2014-10-01T22:35:00,0,28181605,178875
OK,44,45,1050,44,2014-10-01T22:40:00,0,28182053,178875
OK,36,55,1050,36,2014-10-01T22:45:00,1,28182500,178875
OK,36,55,1050,36,2014-10-01T22:50:00,0,28182949,178875
OK,36,55,1050,36,2014-10-01T22:55:00,0,28183366,178875
OK,36,55,1050,36,2014-10-01T23:00:00,0,28183799,178875
OK,36,55,1050,36,2014-10-01T23:05:00,0,28184244,178875
OK,36,55,1050,36,2014-10-01T23:10:00,0,28184693,178875
OK,36,55,1050,36,2014-10-01T23:15:00,0,28185128,178875
OK,36,55,1050,36,2014-10-01T23:20:00,0,28185576,178875
OK,36,55,1050,36,2014-10-01T23:25:00,0,28186007,178875
OK,36,55,1050,36,2014-10-01T23:30:00,0,28186399,178875
OK,36,55,1050,36,2014-10-01T23:40:00,0,28187246,178875
OK,36,55,1050,36,2014-10-01T23:55:00,0,28188578,178875
OK,36,55,1050,36,2014-10-02T00:05:00,0,28189463,178875
OK,36,55,1050,36,2014-10-02T00:10:00,0,28189885,178875
OK,36,55,1050,36,2014-10-02T00:15:00,0,28190334,178875
OK,36,55,1050,36,2014-10-02T00:20:00,0,28190687,178875
OK,36,55,1050,36,2014-10-02T00:30:00,0,28191585,178875
OK,36,55,1050,36,2014-10-02T00:35:00,0,28191891,178875
OK,36,55,1050,36,2014-10-02T00:45:00,0,28192773,178875
OK,36,55,1050,36,2014-10-02T00:50:00,0,28193217,178875
OK,36,55,1050,36,2014-10-02T00:55:00,0,28193584,178875
OK,36,55,1050,36,2014-10-02T01:05:00,0,28194482,178875
OK,36,55,1050,36,2014-10-02T01:10:00,0,28194931,178875
OK,36,55,1050,36,2014-10-02T01:15:00,0,28195167,178875
OK,36,55,1050,36,2014-10-02T01:25:00,0,28196065,178875
OK,36,55,1050,36,2014-10-02T01:30:00,0,28196349,178875
OK,36,55,1050,36,2014-10-02T01:35:00,0,28196798,178875
OK,36,55,1050,36,2014-10-02T01:40:00,0,28197221,178875
OK,36,55,1050,36,2014-10-02T01:45:00,0,28197670,178875
OK,36,55,1050,36,2014-10-02T01:50:00,0,28198118,178875
OK,36,55,1050,36,2014-10-02T01:55:00,0,28198566,178875
OK,36,55,1050,36,2014-10-02T02:00:00,0,28199015,178875
OK,36,55,1050,36,2014-10-02T02:05:00,0,28199387,178875
OK,36,55,1050,36,2014-10-02T02:10:00,0,28199829,178875
OK,76,26,1050,76,2014-10-02T02:15:00,3,28200271,178875
OK,76,26,1050,76,2014-10-02T02:20:00,0,28200714,178875
OK,76,26,1050,76,2014-10-02T02:25:00,0,28201163,178875
OK,76,26,1050,76,2014-10-02T02:30:00,0,28201594,178875
OK,76,26,1050,76,2014-10-02T02:45:00,0,28202492,178875
OK,76,26,1050,76,2014-10-02T02:50:00,0,28202934,178875
OK,76,26,1050,76,2014-10-02T02:55:00,0,28203382,178875
OK,76,26,1050,76,2014-10-02T03:00:00,0,28203817,178875
OK,80,25,1050,80,2014-10-02T03:10:00,1,28204266,178875
OK,80,25,1050,80,2014-10-02T03:25:00,0,28204715,178875
OK,80,25,1050,80,2014-10-02T03:30:00,0,28205164,178875
OK,55,36,1050,55,2014-10-02T03:35:00,1,28205592,178875
OK,55,36,1050,55,2014-10-02T03:40:00,0,28206039,178875
OK,57,35,1050,57,2014-10-02T03:45:00,3,28206422,178875
OK,45,44,1050,45,2014-10-02T03:55:00,0,28207320,178875
OK,35,57,1050,35,2014-10-02T04:00:00,1,28207739,178875
OK,35,57,1050,35,2014-10-02T04:05:00,0,28208188,178875
OK,44,45,1050,44,2014-10-02T04:10:00,2,28208615,178875
OK,46,43,1050,46,2014-10-02T04:15:00,0,28209064,178875
OK,46,43,1050,46,2014-10-02T04:20:00,0,28209502,178875
OK,46,43,1050,46,2014-10-02T04:25:00,0,28209951,178875
OK,60,33,1050,60,2014-10-02T04:30:00,4,28210374,178875
OK,51,39,1050,51,2014-10-02T04:35:00,0,28210823,178875
OK,46,43,1050,46,2014-10-02T04:40:00,1,28211248,178875
OK,46,43,1050,46,2014-10-02T04:45:00,0,28211692,178875
OK,46,43,1050,46,2014-10-02T04:50:00,0,28212070,178875
OK,63,31,1050,63,2014-10-02T05:00:00,1,28212948,178875
OK,74,27,1050,74,2014-10-02T05:05:00,4,28213397,178875
OK,69,29,1050,69,2014-10-02T05:10:00,1,28213835,178875
OK,89,22,1050,89,2014-10-02T05:15:00,2,28214284,178875
OK,67,29,1050,67,2014-10-02T05:20:00,0,28214697,178875
OK,68,29,1050,68,2014-10-02T05:25:00,3,28215146,178875
OK,69,29,1050,69,2014-10-02T05:30:00,2,28215562,178875
OK,69,29,1050,69,2014-10-02T05:35:00,0,28216011,178875
OK,95,21,1050,95,2014-10-02T05:40:00,10,28216350,178875
OK,48,41,1050,48,2014-10-02T05:45:00,3,28216790,178875
OK,41,48,1050,41,2014-10-02T05:50:00,0,28217237,178875
OK,55,36,1050,55,2014-10-02T05:55:00,4,28217686,178875
OK,51,39,1050,51,2014-10-02T06:00:00,5,28218125,178875
OK,98,20,1050,98,2014-10-02T06:05:00,2,28218574,178875
OK,98,20,1050,98,2014-10-02T06:10:00,0,28218994,178875
OK,78,25,1050,78,2014-10-02T06:15:00,7,28219443,178875
OK,169,11,1050,169,2014-10-02T06:20:00,7,28219816,178875
OK,69,29,1050,69,2014-10-02T06:30:00,7,28220699,178875
OK,81,24,1050,81,2014-10-02T06:35:00,10,28221148,178875
OK,111,18,1050,111,2014-10-02T06:40:00,9,28221529,178875
OK,119,16,1050,119,2014-10-02T06:45:00,6,28221815,178875
OK,54,37,1050,54,2014-10-02T07:00:00,4,28222409,178875
OK,51,39,1050,51,2014-10-02T07:10:00,3,28223289,178875
OK,41,48,1050,41,2014-10-02T07:15:00,0,28223724,178875
OK,41,48,1050,41,2014-10-02T07:20:00,0,28224172,178875
OK,81,24,1050,81,2014-10-02T07:25:00,3,28224527,178875
OK,73,27,1050,73,2014-10-02T07:35:00,2,28225425,178875
OK,73,27,1050,73,2014-10-02T07:40:00,2,28225747,178875
OK,107,18,1050,107,2014-10-02T07:50:00,10,28226637,178875
OK,115,17,1050,115,2014-10-02T07:55:00,6,28227086,178875
OK,78,25,1050,78,2014-10-02T08:00:00,1,28227501,178875
OK,84,23,1050,84,2014-10-02T08:05:00,1,28227950,178875
OK,84,23,1050,84,2014-10-02T08:10:00,0,28228309,178875
OK,67,29,1050,67,2014-10-02T08:20:00,2,28229168,178875
OK,49,40,1050,49,2014-10-02T08:25:00,9,28229617,178875
OK,49,40,1050,49,2014-10-02T08:30:00,3,28229967,178875
OK,71,28,1050,71,2014-10-02T08:40:00,1,28230782,178875
OK,71,28,1050,71,2014-10-02T08:45:00,0,28231230,178875
OK,70,28,1050,70,2014-10-02T08:50:00,4,28231654,178875
OK,72,27,1050,72,2014-10-02T08:55:00,1,28232103,178875
OK,54,37,1050,54,2014-10-02T09:00:00,4,28232445,178875
OK,51,39,1050,51,2014-10-02T09:10:00,0,28232894,178875
OK,72,27,1050,72,2014-10-02T09:15:00,4,28233343,178875
OK,72,27,1050,72,2014-10-02T09:20:00,4,28233767,178875
OK,78,25,1050,78,2014-10-02T09:25:00,3,28234216,178875
OK,98,20,1050,98,2014-10-02T09:30:00,1,28234549,178875
OK,90,22,1050,90,2014-10-02T09:40:00,4,28235425,178875
OK,75,26,1050,75,2014-10-02T09:45:00,3,28235874,178875
OK,75,26,1050,75,2014-10-02T09:50:00,0,28236317,178875
OK,59,34,1050,59,2014-10-02T09:55:00,5,28236764,178875
OK,75,26,1050,75,2014-10-02T10:00:00,0,28237167,178875
OK,75,26,1050,75,2014-10-02T10:05:00,0,28237614,178875
OK,82,24,1050,82,2014-10-02T10:10:00,8,28238063,178875
OK,75,26,1050,75,2014-10-02T10:15:00,4,28238510,178875
OK,80,25,1050,80,2014-10-02T10:20:00,0,28238951,178875
OK,67,29,1050,67,2014-10-02T10:25:00,5,28239400,178875
OK,45,44,1050,45,2014-10-02T10:30:00,0,28239830,178875
OK,41,48,1050,41,2014-10-02T10:35:00,1,28240279,178875
OK,91,22,1050,91,2014-10-02T10:40:00,5,28240723,178875
OK,92,21,1050,92,2014-10-02T10:45:00,7,28241172,178875
OK,105,19,1050,105,2014-10-02T10:50:00,3,28241604,178875
OK,76,26,1050,76,2014-10-02T10:55:00,6,28242052,178875
OK,76,26,1050,76,2014-10-02T11:00:00,3,28242448,178875
OK,77,26,1050,77,2014-10-02T11:05:00,0,28242897,178875
OK,102,19,1050,102,2014-10-02T11:10:00,1,28243346,178875
OK,37,54,1050,37,2014-10-02T11:15:00,1,28243671,178875
OK,51,39,1050,51,2014-10-02T11:20:00,4,28244109,178875
OK,68,29,1050,68,2014-10-02T11:25:00,2,28244538,178875
OK,95,21,1050,95,2014-10-02T11:30:00,0,28244987,178875
OK,94,21,1050,94,2014-10-02T11:35:00,4,28245436,178875
OK,45,44,1050,45,2014-10-02T11:40:00,0,28245842,178875
OK,45,44,1050,45,2014-10-02T11:45:00,0,28246291,178875
OK,108,18,1050,108,2014-10-02T11:50:00,3,28246728,178875
OK,69,29,1050,69,2014-10-02T11:55:00,3,28247177,178875
OK,78,25,1050,78,2014-10-02T12:00:00,5,28247623,178875
OK,82,24,1050,82,2014-10-02T12:05:00,3,28248053,178875
OK,82,24,1050,82,2014-10-02T12:10:00,0,28248502,178875
OK,91,22,1050,91,2014-10-02T12:15:00,4,28248949,178875
OK,66,30,1050,66,2014-10-02T12:20:00,1,28249377,178875
OK,80,25,1050,80,2014-10-02T12:25:00,3,28249821,178875
OK,76,26,1050,76,2014-10-02T12:30:00,2,28250240,178875
OK,82,24,1050,82,2014-10-02T12:35:00,5,28250638,178875
OK,111,18,1050,111,2014-10-02T13:20:00,4,28251963,178875
OK,95,21,1050,95,2014-10-02T13:30:00,8,28252547,178875
OK,37,54,1050,37,2014-10-02T13:35:00,1,28252989,178875
OK,37,54,1050,37,2014-10-02T13:40:00,0,28253406,178875
OK,153,13,1050,153,2014-10-02T13:50:00,2,28254260,178875
OK,53,37,1050,53,2014-10-02T13:55:00,1,28254581,178875
OK,175,11,1050,175,2014-10-02T14:10:00,5,28255158,178875
OK,153,13,1050,153,2014-10-02T14:15:00,6,28255607,178875
OK,158,12,1050,158,2014-10-02T14:20:00,4,28256035,178875
OK,109,18,1050,109,2014-10-02T14:25:00,1,28256484,178875
OK,137,14,1050,137,2014-10-02T14:30:00,6,28256912,178875
OK,99,20,1050,99,2014-10-02T14:35:00,4,28257361,178875
OK,99,20,1050,99,2014-10-02T14:40:00,2,28257802,178875
OK,77,26,1050,77,2014-10-02T14:45:00,8,28258250,178875
OK,74,27,1050,74,2014-10-02T14:50:00,10,28258683,178875
OK,77,26,1050,77,2014-10-02T14:55:00,7,28259129,178875
OK,78,25,1050,78,2014-10-02T15:00:00,6,28259578,178875
OK,74,27,1050,74,2014-10-02T15:05:00,5,28260025,178875
OK,66,30,1050,66,2014-10-02T15:10:00,3,28260458,178875
OK,51,39,1050,51,2014-10-02T15:15:00,8,28260907,178875
OK,49,40,1050,49,2014-10-02T15:20:00,4,28261347,178875
OK,58,34,1050,58,2014-10-02T15:25:00,3,28261729,178875
OK,73,27,1050,73,2014-10-02T15:40:00,0,28263052,178875
OK,62,32,1050,62,2014-10-02T15:45:00,2,28263490,178875
OK,45,44,1050,45,2014-10-02T15:50:00,1,28263931,178875
OK,45,44,1050,45,2014-10-02T15:55:00,0,28264333,178875
OK,54,37,1050,54,2014-10-02T16:00:00,4,28264782,178875
OK,56,35,1050,56,2014-10-02T16:05:00,3,28265220,178875
OK,77,26,1050,77,2014-10-02T16:10:00,0,28265660,178875
OK,77,26,1050,77,2014-10-02T16:15:00,0,28266056,178875
OK,67,29,1050,67,2014-10-02T16:20:00,6,28266505,178875
OK,96,20,1050,96,2014-10-02T16:25:00,3,28266954,178875
OK,96,20,1050,96,2014-10-02T16:30:00,3,28267277,178875
OK,84,23,1050,84,2014-10-02T16:40:00,0,28268175,178875
OK,50,40,1050,50,2014-10-02T16:45:00,3,28268617,178875
OK,48,41,1050,48,2014-10-02T16:50:00,0,28269066,178875
OK,70,28,1050,70,2014-10-02T16:55:00,3,28269515,178875
OK,70,28,1050,70,2014-10-02T17:00:00,1,28269950,178875
OK,70,28,1050,70,2014-10-02T17:05:00,0,28270399,178875
OK,70,28,1050,70,2014-10-02T17:10:00,0,28270833,178875
OK,70,28,1050,70,2014-10-02T17:15:00,0,28271282,178875